Wind_Speed
24 23 22 22 23 24 24 22 22 22 20 20 20 19 19 18 16 15 14 13 12 12 11 10 10 9 9 8 7 7 7 7 6 5 5 5 4 3 3 3 3 4
25 24 23 22 23 23 24 23 23 23 22 21 20 19 18 18 16 15 15 14 14 13 12 12 11 11 10 9 8 8 8 7 6 5 5 6 6 6 5 5 5 4
24 25 24 23 24 24 23 24 24 23 22 21 21 19 18 18 17 16 16 16 16 15 14 13 13 12 12 10 9 8 8 9 8 7 6 6 6 7 6 7 6 5
24 25 24 23 24 24 23 23 23 23 21 20 20 19 17 17 17 17 17 16 16 16 15 15 14 13 12 11 10 9 9 9 8 7 7 7 8 8 7 7 7 5
25 25 24 23 23 23 23 23 22 22 21 20 19 18 18 17 17 18 18 17 17 16 16 15 15 14 13 12 11 11 10 9 9 8 8 8 9 9 8 7 7 5
26 25 24 24 24 23 23 23 23 22 21 20 20 19 19 18 18 19 19 18 17 16 16 16 15 14 13 12 12 12 12 11 10 9 9 9 9 8 7 7 6 5
28 27 25 23 24 24 23 24 24 24 23 21 21 21 20 19 19 19 19 18 17 17 17 16 15 14 13 13 12 13 12 12 11 11 10 9 9 9 8 6 6 6
29 29 27 25 24 23 23 24 24 24 23 22 21 22 22 21 20 20 19 19 18 17 17 16 15 15 14 14 14 13 13 12 11 11 12 10 9 9 9 7 7 8
30 29 28 27 26 25 25 25 25 24 23 23 22 21 21 21 21 20 20 20 19 18 18 17 16 15 15 15 15 14 14 13 12 12 12 12 11 10 9 8 8 8
30 30 30 29 28 27 26 26 26 25 25 24 23 21 21 21 20 21 20 20 20 20 19 19 18 17 17 17 17 16 14 13 12 12 12 12 12 12 10 8 8 8
29 29 29 30 29 26 25 26 27 26 25 25 23 22 22 21 20 20 21 20 20 19 19 19 18 18 18 18 17 16 14 13 13 12 12 12 13 13 12 10 9 10
30 30 29 30 29 27 24 25 27 26 25 25 25 24 23 23 21 20 20 20 19 18 18 19 19 18 17 16 16 16 15 14 14 14 14 13 13 13 13 13 12 12
27 28 29 29 29 27 25 24 25 25 25 25 27 27 25 24 24 22 21 21 20 19 19 18 18 18 17 16 16 15 16 16 15 15 15 14 13 13 13 13 12 12
24 23 25 26 27 28 26 25 26 26 26 26 27 29 29 27 26 24 23 23 22 21 20 19 19 19 19 18 17 16 16 16 16 15 14 14 13 13 12 12 12 13
24 20 20 21 24 28 28 26 27 26 27 27 28 30 31 30 28 26 25 25 24 23 22 21 20 20 20 19 18 18 17 17 17 15 14 14 14 13 13 13 14 14
23 19 15 13 17 24 27 25 23 22 23 25 28 30 31 30 28 27 27 26 25 24 23 21 20 21 21 21 19 19 18 18 17 17 17 16 15 14 14 14 14 13
22 19 14 9 11 16 20 20 19 18 17 17 22 29 31 31 29 27 27 25 24 23 23 22 21 20 20 21 20 19 19 18 18 18 18 17 16 15 14 13 13 13
21 20 16 11 10 11 13 15 15 15 14 13 18 24 27 28 27 26 26 25 23 23 24 24 22 20 20 20 19 18 18 19 19 18 18 18 18 17 15 13 13 13
20 19 16 13 10 9 9 10 11 12 13 14 16 20 22 24 25 25 24 23 23 23 23 24 23 22 21 20 19 18 18 18 19 19 19 19 18 17 16 15 14 12
16 16 15 13 11 9 9 9 8 8 10 12 14 15 14 14 15 18 21 22 23 22 21 21 21 21 21 20 20 19 19 17 17 19 20 20 19 18 18 17 14 11
8 9 10 10 10 10 11 11 10 10 10 10 10 11 10 6 4 6 10 13 17 20 21 20 20 20 20 20 21 21 21 19 18 17 18 20 19 18 17 15 13 11
6 5 5 6 7 7 9 10 11 13 13 11 9 10 14 15 13 11 10 9 11 15 18 19 20 19 19 20 21 20 21 22 21 20 19 18 18 16 15 14 13 11
4 5 5 7 9 9 10 11 13 15 13 11 12 14 15 17 17 16 16 16 15 15 16 17 17 17 17 18 19 19 20 21 22 22 21 19 19 17 15 13 12 11
1 2 4 7 8 9 9 8 10 13 11 9 14 17 15 16 18 18 16 16 17 17 16 16 16 16 16 17 18 19 20 20 21 22 20 19 21 20 17 14 12 11
4 3 2 4 5 5 4 4 6 8 9 7 10 13 15 16 19 19 19 19 19 17 16 16 16 16 18 19 18 19 19 18 18 20 19 19 22 21 18 15 13 11
8 6 3 1 1 3 4 5 7 7 6 7 10 13 15 16 16 17 19 20 19 18 18 19 18 17 20 21 21 21 21 18 16 17 19 21 22 20 17 14 12 11
Wind_Direction
200 202 205 207 206 206 205 202 198 199 200 202 205 206 205 206 211 216 217 215 219 220 218 221 225 229 231 227 225 230 229 225 231 243 251 263 275 280 276 277 301 325
204 207 208 210 208 207 208 207 204 203 204 207 210 210 210 210 213 218 218 218 224 228 226 227 229 230 231 229 227 228 228 226 230 242 250 257 266 278 281 272 276 300
206 207 208 210 209 207 207 207 207 209 210 212 215 216 215 214 216 220 221 223 226 229 230 231 230 231 234 235 230 230 232 234 238 247 252 255 264 274 275 271 271 282
206 205 205 208 207 205 205 205 207 211 213 215 216 216 215 215 217 220 223 225 227 229 232 233 232 233 237 238 233 230 234 240 243 249 256 257 262 271 276 276 268 272
203 201 202 204 205 205 206 206 207 210 214 217 218 216 214 214 216 218 222 225 228 231 232 233 233 233 235 236 231 229 233 243 246 246 256 261 264 273 281 278 265 267
203 201 201 203 204 205 208 209 211 213 216 218 219 216 214 215 216 215 218 222 225 227 228 229 231 231 233 232 229 231 235 241 244 242 251 261 265 274 281 274 261 260
204 203 202 202 203 206 211 213 214 216 218 220 219 218 217 217 217 216 217 219 219 221 223 226 229 230 233 232 233 240 241 242 243 238 242 254 262 271 274 267 258 258
203 203 203 204 205 209 212 213 215 218 219 220 219 217 217 218 219 220 221 220 219 220 221 224 227 229 232 234 239 245 245 245 246 241 242 251 260 266 268 265 263 263
203 204 204 205 207 210 212 211 214 218 218 217 217 216 217 219 221 223 224 223 223 224 223 224 228 230 231 234 238 243 246 246 248 246 247 252 258 263 267 265 263 262
204 206 206 206 209 212 215 214 215 217 216 216 217 219 220 222 222 223 224 225 226 227 226 225 227 231 233 234 235 239 243 246 248 249 251 254 259 265 266 261 254 253
204 207 209 209 211 215 218 217 214 214 214 215 216 220 223 224 222 221 221 223 225 226 225 223 226 230 234 235 236 237 241 247 251 252 254 255 260 267 268 263 259 257
204 206 209 211 213 216 219 217 214 214 217 217 215 219 224 225 222 220 220 220 222 224 224 224 227 230 233 233 234 236 238 244 250 254 255 255 258 264 269 271 271 268
202 204 208 211 214 216 218 219 218 220 223 221 219 219 222 222 221 222 222 221 221 224 224 225 226 228 230 232 233 236 237 241 247 251 252 252 254 260 265 269 271 268
197 199 204 209 214 216 217 219 222 224 226 226 223 220 219 221 222 224 224 223 224 226 225 226 228 229 230 233 234 234 237 241 245 248 248 248 252 256 258 259 262 264
195 197 200 207 215 217 216 218 222 226 228 228 226 222 220 221 223 224 222 222 225 228 228 229 230 230 230 232 232 231 233 237 241 245 246 249 254 256 255 257 262 265
191 192 193 200 211 216 217 218 221 224 226 227 227 225 222 220 221 223 222 222 225 228 230 231 230 230 231 232 232 231 231 231 235 241 243 247 252 252 252 258 262 263
184 185 186 185 188 199 208 211 214 217 219 221 222 222 221 218 218 219 220 222 226 229 230 230 230 231 231 231 232 233 232 231 232 238 242 244 244 245 250 255 256 258
181 181 182 182 174 176 185 192 199 204 207 209 212 214 215 215 217 219 221 222 225 228 230 231 231 232 231 231 233 234 233 233 233 237 242 244 244 245 246 247 251 259
187 191 192 192 190 187 184 183 187 192 193 196 201 206 211 214 216 217 218 219 221 222 224 226 228 229 230 232 233 232 231 235 237 237 238 242 245 243 243 247 254 261
197 204 207 212 220 225 219 210 206 199 193 192 195 199 202 206 212 214 212 212 215 216 218 219 221 223 227 230 230 229 230 234 238 238 239 242 243 244 248 251 247 245
220 221 219 226 238 243 240 238 238 237 229 216 204 199 197 198 222 232 224 220 220 221 220 221 222 223 227 230 231 230 232 234 237 240 243 242 241 244 246 238 226 226
236 236 225 226 239 252 259 261 260 253 241 224 212 208 206 212 223 230 233 238 238 235 230 226 228 229 229 232 233 231 230 233 238 245 249 241 231 231 227 217 216 225
207 207 206 211 219 232 247 257 262 262 251 232 234 232 211 206 216 221 221 226 233 240 239 233 232 235 235 235 235 232 231 234 237 244 250 239 222 218 218 215 220 229
345 258 249 246 242 243 249 253 259 267 267 252 251 253 240 227 229 230 229 232 236 240 244 242 240 240 240 240 239 238 238 239 239 243 246 234 217 211 213 213 216 226
56 37 341 294 285 282 281 279 269 266 266 262 260 262 258 250 242 235 233 237 237 235 237 241 243 246 248 247 244 243 243 242 243 242 234 218 206 201 200 202 210 225
90 84 76 50 304 269 263 271 270 263 255 250 249 248 249 248 241 228 222 223 226 231 238 244 245 246 250 250 246 243 241 235 231 227 214 201 197 198 197 198 207 225
Height
840 841 842 843 845 846 847 848 849 850 851 852 853 854 855 856 857 858 858 859 860 860 860 861 861 862 862 862 863 863 863 863 863 863 863 863 863 863 864 864 864 864
839 840 842 843 843 845 846 847 848 849 850 851 852 853 854 855 856 857 857 858 859 859 860 860 861 861 861 862 862 862 862 863 863 863 863 863 863 864 864 864 864 864
838 839 840 841 842 843 845 846 847 848 849 850 851 852 853 854 855 856 856 857 857 858 859 859 860 860 861 861 861 861 862 862 863 863 863 863 863 864 864 864 864 864
837 838 839 840 841 843 844 845 846 847 848 849 849 851 852 853 854 854 855 856 856 857 857 858 859 859 860 860 860 861 861 861 862 862 862 863 863 863 863 863 863 863
835 837 838 839 840 842 843 844 845 845 846 848 848 849 850 851 852 853 854 854 855 856 856 857 858 858 859 859 859 860 860 860 861 861 862 862 862 862 862 862 862 862
834 835 836 838 839 841 842 842 843 844 845 846 847 848 849 850 851 851 852 853 853 854 855 856 857 857 858 858 859 859 859 860 860 860 861 861 861 861 861 862 861 861
832 834 835 837 838 839 840 841 842 843 844 845 846 847 848 848 849 850 850 851 852 853 854 855 856 856 857 857 858 858 858 859 859 859 860 860 860 860 860 860 860 860
830 832 833 835 836 838 839 839 841 841 842 843 844 845 846 847 848 848 849 850 851 852 852 854 854 855 856 856 857 857 857 858 858 858 859 859 859 859 859 859 859 859
829 830 832 833 834 836 837 837 839 839 841 842 842 843 844 845 846 847 848 848 849 850 851 852 853 854 855 855 856 856 857 857 858 858 858 858 858 858 858 858 858 858
827 829 830 832 833 834 835 836 837 837 839 840 841 842 842 843 845 845 846 847 848 849 850 851 852 852 853 854 854 855 856 856 856 857 857 857 857 857 857 857 857 857
825 827 829 830 831 832 833 834 835 836 837 838 839 840 841 841 843 844 845 846 846 847 848 849 850 851 851 852 853 854 854 855 855 855 856 856 856 856 856 856 856 856
823 825 827 828 829 830 831 832 833 834 835 836 837 838 839 840 840 841 842 843 845 845 846 847 848 849 849 850 851 852 852 853 853 854 854 854 855 855 855 855 855 855
822 823 825 826 828 828 830 831 832 833 833 834 835 835 836 837 838 839 840 841 842 843 844 845 846 847 848 848 849 850 850 851 852 852 852 853 853 853 854 854 854 854
820 822 823 824 826 827 828 829 830 831 831 832 833 833 834 835 835 836 838 839 840 841 842 843 844 845 845 846 847 848 848 849 850 850 850 851 851 852 852 852 853 853
818 820 821 822 824 825 826 827 828 828 829 830 830 831 832 832 833 834 835 837 838 839 840 841 842 842 843 844 844 845 846 847 847 848 849 849 849 850 850 851 851 851
817 819 820 821 822 823 824 825 826 826 827 827 828 829 830 830 832 833 833 835 836 837 838 839 839 840 840 841 842 843 844 844 845 846 847 847 847 848 848 849 849 849
816 818 819 821 821 822 822 823 824 825 825 825 826 827 828 828 830 831 831 833 834 835 836 837 837 838 838 839 840 841 842 842 843 844 844 845 846 845 846 846 846 847
815 816 817 819 820 821 821 822 823 823 823 824 824 825 826 827 828 829 830 831 832 833 834 835 835 836 837 837 838 839 840 841 841 841 842 843 843 843 844 844 844 845
813 814 815 818 819 820 821 821 822 822 822 822 823 824 826 826 827 828 828 829 830 831 832 832 834 835 835 836 836 837 838 838 839 839 840 840 841 842 842 842 842 843
811 812 814 816 818 819 820 820 821 821 821 822 823 824 825 827 828 828 828 828 829 829 830 831 832 833 833 834 834 835 836 836 837 837 838 838 839 840 840 841 841 841
811 812 813 815 817 818 819 819 819 820 821 821 822 822 824 827 829 830 830 830 830 829 829 829 830 831 831 832 832 833 834 834 835 835 836 836 837 837 838 839 839 840
811 812 813 814 815 816 817 817 818 819 820 821 821 821 822 824 826 827 828 829 830 829 829 828 828 828 829 829 830 831 832 832 833 833 834 834 835 836 836 837 838 838
812 812 813 813 813 813 814 814 815 816 818 820 822 821 821 822 822 823 823 825 826 827 827 826 826 827 827 827 828 828 829 829 830 830 831 832 833 833 834 835 836 836
813 813 812 812 812 812 813 813 813 815 817 820 822 822 820 821 821 821 822 822 823 824 824 824 824 824 825 825 825 826 826 826 827 827 828 829 830 831 832 833 833 834
812 812 812 812 812 813 814 814 814 814 815 817 818 818 817 817 818 819 820 821 822 823 822 822 822 823 823 823 823 824 824 824 825 825 825 826 827 828 829 830 831 832
812 812 812 812 813 813 814 814 815 815 815 814 814 814 814 814 814 815 816 818 819 820 820 820 820 821 822 821 821 821 821 821 823 824 823 823 824 825 827 827 828 830